• Join FlightAware (Why Join?)
  • Login
  • US Flag GB Flag 
06:54 EST


 

Airport Tracker/Info


-or-


 

Live Flight TrackerFlight Track Log ✈ SWA3853 ✈ 09-May-2013 ✈ KMCI - KDAL

Flight Track Log - Related Links

Times and Time Zones

All times are in EDT time to prevent confusion due to time zone crossing. See the SWA3853 flight status page for this flight to view local times or setup timezone preferences in your user account.

Time Position Orientation Groundspeed Altitude Reporting Facility
EDT Latitude Longitude Course Direction KTS MPH feet Rate Location/Type
15:00 39.2383 -94.7356 196° South 179 206 3,200  Level Kansas City Center
15:01 39.1772 -94.7814 210° Southwest 225 259 6,200 3,060 Climbing Kansas City Center
15:02 39.1117 -94.8217 205° Southwest 274 315 9,600 3,600 Climbing Kansas City Center
15:03 39.0275 -94.8450 192° South 276 318 13,700 3,060 Climbing Kansas City Center
15:04 38.9539 -94.8672 193° South 283 326 16,000 1,740 Climbing Kansas City Center
15:05 38.8433 -94.8992 193° South 368 423 17,300 1,680 Climbing Kansas City Center
15:06 38.7392 -94.9294 193° South 396 456 19,500 2,340 Climbing Kansas City Center
15:07 38.6339 -94.9658 195° South 407 468 22,200 2,460 Climbing Kansas City Center
15:08 38.5089 -95.0106 196° South 416 479 24,600 1,980 Climbing Kansas City Center
15:09 38.3981 -95.0494 195° South 429 494 26,400 1,980 Climbing Kansas City Center
15:10 38.2664 -95.0947 195° South 436 502 28,700 2,160 Climbing Kansas City Center
15:11 38.1553 -95.1339 195° South 435 501 30,900 2,160 Climbing Kansas City Center
15:12 38.0283 -95.1772 195° South 424 488 33,200 1,800 Climbing Kansas City Center
15:13 37.9303 -95.2111 195° South 414 476 34,700 1,320 Climbing Kansas City Center
15:14 37.7997 -95.2550 195° South 410 472 36,000 600 Climbing Kansas City Center
15:15 37.6886 -95.2933 195° South 408 470 36,000  Level Kansas City Center
15:16 37.5800 -95.3289 195° South 405 466 36,000  Level Kansas City Center
15:17 37.4708 -95.3656 195° South 405 466 36,000  Level Kansas City Center
15:18 37.3583 -95.3786 185° South 409 471 36,000  Level Kansas City Center
15:19 37.2419 -95.3697 177° South 416 479 36,000  Level Kansas City Center
15:20 37.1028 -95.3631 178° South 417 480 36,000  Level Kansas City Center
15:21 36.9878 -95.3583 178° South 414 476 36,000  Level Kansas City Center
15:22 36.8719 -95.3531 178° South 415 478 36,000  Level Kansas City Center
15:23 36.7592 -95.3475 178° South 408 470 36,000  Level Kansas City Center
15:24 36.6486 -95.3428 178° South 400 460 36,000  Level Kansas City Center
15:25 36.5356 -95.3375 178° South 394 453 36,000  Level Kansas City Center
15:26 36.4275 -95.3331 178° South 390 449 36,000  Level Kansas City Center
15:27 36.3214 -95.3283 178° South 387 445 36,000  Level Kansas City Center
15:28 36.1942 -95.3217 178° South 382 440 36,000  Level Kansas City Center
15:29 36.0892 -95.3175 178° South 378 435 36,000  Level Kansas City Center
15:31 35.9775 -95.3119 178° South 379 436 36,000  Level Kansas City Center
15:32 35.8717 -95.3078 178° South 380 437 36,000  Level Kansas City Center
15:33 35.7644 -95.3039 178° South 383 441 36,000  Level Kansas City Center
15:34 35.6589 -95.2986 178° South 380 437 36,000  Level Kansas City Center
15:35 35.5497 -95.2942 178° South 385 443 36,000  Level Kansas City Center
15:36 35.4406 -95.2911 179° South 385 443 36,000  Level Fort Worth Center
15:37 35.3319 -95.2889 179° South 391 450 36,000  Level Fort Worth Center
15:38 35.2325 -95.3294 198° South 370 426 36,000 -300 Level Fort Worth Center
15:39 35.1375 -95.3800 204° Southwest 375 432 35,400 -840 Descending Fort Worth Center
15:40 35.0403 -95.4306 203° Southwest 380 437 34,400 -1,020 Descending Fort Worth Center
15:41 34.9450 -95.4758 201° Southwest 385 443 33,400 -960 Descending Fort Worth Center
15:42 34.8478 -95.5311 205° Southwest 385 443 32,500 -720 Descending Fort Worth Center
15:43 34.7464 -95.5789 201° Southwest 390 449 32,000 -720 Descending Fort Worth Center
15:44 34.6469 -95.6314 203° Southwest 390 449 31,100 -1,020 Descending Fort Worth Center
15:45 34.5475 -95.6839 204° Southwest 390 449 30,000 -1,080 Descending Fort Worth Center
15:46 34.4567 -95.7489 211° Southwest 390 449 29,000 -780 Descending Fort Worth Center
15:47 34.3761 -95.8283 219° Southwest 379 436 28,500 -780 Descending Fort Worth Center
15:48 34.2894 -95.8978 214° Southwest 379 436 27,500 -1,080 Descending Fort Worth Center
15:49 34.2025 -95.9619 211° Southwest 379 436 26,400 -1,080 Descending Fort Worth Center
15:50 34.1069 -95.9961 196° South 356 410 25,400 -1,380 Descending Fort Worth Center
15:51 34.0028 -96.0006 182° South 368 423 23,700 -1,920 Descending Fort Worth Center
15:52 33.9006 -96.0019 181° South 368 423 21,600 -1,680 Descending Fort Worth Center
15:53 33.8003 -96.0011 180° South 368 423 20,400 -1,500 Descending Fort Worth Center
15:54 33.7003 -96.0103 184° South 368 423 18,600 -2,220 Descending Fort Worth Center
15:55 33.6172 -96.0714 212° Southwest 341 392 16,100 -2,160 Descending Fort Worth Center
15:56 33.5367 -96.1325 212° Southwest 352 405 14,300 -1,800 Descending Fort Worth Center
15:57 33.4642 -96.1858 212° Southwest 347 399 12,500 -1,920 Descending Fort Worth Center
15:58 33.3833 -96.2467 212° Southwest 333 383 10,500 -1,260 Descending Fort Worth Center
15:59 33.3189 -96.2922 211° Southwest 312 359 10,000 -780 Descending Fort Worth Center
16:00 33.2547 -96.3478 216° Southwest 277 319 9,000 -840 Descending Fort Worth Center
16:01 33.2156 -96.4128 234° Southwest 272 313 8,400 -1,140 Descending Fort Worth Center
16:02 33.1725 -96.5025 240° Southwest 279 321 6,800 -1,560 Descending Fort Worth Center
16:03 33.1458 -96.5847 249° West 280 322 5,400 -1,440 Descending Fort Worth Center
16:04 33.1172 -96.6644 247° West 270 311 3,900 -780 Descending Fort Worth Center
16:05 33.0864 -96.7392 244° Southwest 258 297 3,900 -480 Level Fort Worth Center
16:06 33.0572 -96.8011 241° Southwest 229 264 3,000 -540 Descending Fort Worth Center
16:07 33.0283 -96.8658 242° Southwest 219 252 2,900  Descending Fort Worth Center
16:07 33.0167 -96.8833 232° Southwest 219 252 3,000 -600 Climbing Dallas / Fort Worth TRACON
16:08 32.9833 -96.9333 232° Southwest 221 254 2,200 -600 Descending Dallas / Fort Worth TRACON
16:09 32.9333 -96.9500 196° South 192 221 1,900 -240 Descending Dallas / Fort Worth TRACON
16:10 32.9000 -96.9167 140° Southeast 139 160 1,800 -480 Descending Dallas / Fort Worth TRACON
16:11 32.8833 -96.8833 121° Southeast 134 154 1,000 -780 Descending Dallas / Fort Worth TRACON